N5SRF Weather Reports


time (UTC)temp
F
wind
direction
speed
knots
gust
knots
rain 1hr
in
rain 24hr
in
rain mn
in
humidity
%
barometer
mb
20260509212215 87 84 4.3 5.2 0.00 0.00 0.00 75 1012.4
20260509211711 88 266 0.0 0.9 0.00 0.00 0.00 75 1012.3
20260509211207 87 101 2.6 2.6 0.00 0.00 0.00 75 1012.2
20260509210703 86 101 0.9 0.9 0.00 0.00 0.00 76 1012.4
20260509210156 84 128 1.7 1.7 0.00 0.00 0.00 81 1012.4
20260509205651 83 93 1.7 1.7 0.00 0.00 0.00 83 1012.4
20260509205150 82 100 0.0 0.0 0.00 0.00 0.00 83 1012.6
20260509204646 83 75 0.9 0.9 0.00 0.00 0.00 82 1012.7
20260509204143 84 28 2.6 2.6 0.00 0.00 0.00 80 1012.7
20260509203638 84 114 0.9 0.9 0.00 0.00 0.00 80 1012.6
20260509203132 85 97 0.9 0.9 0.00 0.00 0.00 79 1012.7
20260509202631 85 113 3.5 4.3 0.00 0.00 0.00 79 1012.8
20260509202127 84 106 2.6 2.6 0.00 0.00 0.00 81 1012.8
20260509201622 84 118 1.7 1.7 0.00 0.00 0.00 82 1012.9
20260509201120 85 88 3.5 5.2 0.00 0.00 0.00 79 1013.0
20260509200615 85 101 3.5 4.3 0.00 0.00 0.00 81 1013.1
20260509200111 85 92 3.5 4.3 0.00 0.00 0.00 80 1013.1
20260509195607 84 141 0.0 0.9 0.00 0.00 0.00 81 1013.1
20260509195102 83 116 1.7 1.7 0.00 0.00 0.00 85 1013.3
20260509194601 83 111 1.7 2.6 0.00 0.00 0.00 83 1013.3
20260509194059 83 95 1.7 2.6 0.00 0.00 0.00 84 1013.4
20260509193555 83 107 0.9 0.9 0.00 0.00 0.00 84 1013.3
20260509193051 83 39 1.7 1.7 0.00 0.00 0.00 82 1013.4
20260509192548 84 118 0.9 0.9 0.00 0.00 0.00 81 1013.4
20260509192042 84 51 0.9 0.9 0.00 0.00 0.00 83 1013.5
20260509191537 83 104 1.7 1.7 0.00 0.00 0.00 83 1013.5
20260509191033 85 325 1.7 1.7 0.00 0.00 0.00 80 1013.7
20260509190530 86 121 0.9 0.9 0.00 0.00 0.00 79 1013.6
20260509190028 87 199 0.9 0.9 0.00 0.00 0.00 80 1013.6
20260509185525 85 228 0.9 0.9 0.00 0.00 0.00 82 1013.7
20260509185021 84 108 1.7 1.7 0.00 0.00 0.00 82 1013.8
20260509184520 84 123 0.0 0.0 0.00 0.00 0.00 82 1014.0
20260509184016 84 174 0.0 0.0 0.00 0.00 0.00 83 1014.0
20260509183511 84 197 0.9 0.9 0.00 0.00 0.00 83 1014.0
20260509183007 84 116 1.7 1.7 0.00 0.00 0.00 83 1014.2
20260509182504 82 225 0.9 1.7 0.00 0.00 0.00 87 1014.1
20260509182001 81 93 2.6 2.6 0.00 0.00 0.00 87 1014.2
20260509181459 80 151 0.9 1.7 0.00 0.00 0.00 89 1014.2
20260509180956 80 84 0.0 0.9 0.00 0.00 0.00 89 1014.5
20260509180451 80 128 1.7 2.6 0.00 0.00 0.00 89 1014.4
20260509175949 80 70 0.9 0.9 0.00 0.00 0.00 90 1014.6
20260509175445 79 89 1.7 1.7 0.00 0.00 0.00 90 1014.4
20260509174942 79 106 3.5 4.3 0.00 0.00 0.00 90 1014.5
20260509174438 80 82 0.9 1.7 0.00 0.00 0.00 89 1014.6
20260509173933 81 44 1.7 2.6 0.00 0.00 0.00 86 1014.5
20260509173433 82 238 0.9 1.7 0.00 0.00 0.00 83 1014.6
20260509172929 82 208 0.9 0.9 0.00 0.00 0.00 84 1014.5
20260509172426 83 233 1.7 1.7 0.00 0.00 0.00 83 1014.6
20260509171922 82 132 0.0 0.9 0.00 0.00 0.00 83 1014.5
20260509171418 83 160 0.9 0.9 0.00 0.00 0.00 83 1014.5
20260509170915 83 190 0.9 0.9 0.00 0.00 0.00 85 1014.4
20260509170410 82 133 0.9 0.9 0.00 0.00 0.00 86 1014.1
20260509165907 81 160 1.7 2.6 0.00 0.00 0.00 87 1014.4
20260509165400 81 149 0.9 1.7 0.00 0.00 0.00 88 1014.9
20260509164856 80 142 0.0 0.9 0.00 0.00 0.00 90 1014.8
20260509164353 79 139 0.0 0.9 0.00 0.00 0.00 92 1014.7
20260509163849 78 160 0.0 0.9 0.00 0.00 0.00 92 1015.0
20260509163346 78 278 0.9 1.7 0.00 0.00 0.00 92 1015.0
20260509162845 78 207 0.0 0.0 0.00 0.00 0.00 92 1015.2
20260509162344 78 260 1.7 1.7 0.00 0.00 0.00 92 1015.3
20260509161840 78 172 0.9 0.9 0.00 0.00 0.00 92 1015.3
20260509161336 78 193 0.0 0.9 0.00 0.00 0.00 93 1015.4
20260509160832 77 169 0.9 0.9 0.00 0.00 0.00 94 1015.5
20260509160328 77 243 0.9 1.7 0.00 0.00 0.00 95 1015.2
20260509155823 77 156 0.0 0.0 0.00 0.00 0.00 95 1015.2
20260509155320 77 181 0.0 0.9 0.00 0.00 0.00 95 1015.4
20260509154816 77 177 0.0 0.9 0.00 0.00 0.00 96 1015.4
20260509154313 77 180 0.0 0.0 0.00 0.00 0.00 97 1015.3
20260509153810 77 172 1.7 2.6 0.00 0.00 0.00 97 1015.1
20260509153306 76 193 0.9 1.7 0.00 0.00 0.00 99 1015.3
20260509152803 76 163 0.9 0.9 0.00 0.00 0.00 99 1015.3
20260509152259 76 156 0.9 0.9 0.00 0.00 0.00 99 1015.3
20260509151757 75 202 0.0 0.0 0.00 0.00 0.00 99 1015.1
20260509151253 76 198 0.0 0.9 0.00 0.00 0.00 99 1015.0
20260509150752 76 111 0.0 0.9 0.00 0.00 0.00 99 1015.0
20260509150249 75 168 0.0 0.9 0.00 0.00 0.00 99 1014.8
20260509145746 75 159 0.9 1.7 0.00 0.00 0.00 99 1014.7
20260509145245 75 157 0.9 1.7 0.00 0.00 0.00 99 1014.6
20260509144742 75 170 0.0 0.0 0.00 0.00 0.00 99 1014.9
20260509144239 75 256 1.7 1.7 0.00 0.00 0.00 99 1014.4
20260509143736 75 174 0.9 1.7 0.00 0.00 0.00 99 1013.9
20260509143234 75 179 1.7 1.7 0.00 0.00 0.00 99 1014.0
20260509142730 75 172 1.7 1.7 0.00 0.00 0.00 99 1013.8
20260509142226 74 208 0.9 0.9 0.00 0.00 0.00 99 1013.7
20260509141722 74 190 2.6 2.6 0.00 0.00 0.00 99 1013.8
20260509141220 74 150 1.7 1.7 0.00 0.00 0.00 99 1013.8
20260509140716 74 182 0.0 0.9 0.00 0.00 0.00 99 1014.0
20260509140213 74 156 2.6 2.6 0.00 0.00 0.00 99 1014.3
20260509135710 74 154 0.9 0.9 0.00 0.00 0.00 99 1014.2
20260509135208 74 163 0.0 0.9 0.00 0.00 0.00 99 1014.1
20260509134705 73 186 0.0 0.0 0.00 0.00 0.00 99 1014.5
20260509134202 73 171 1.7 1.7 0.00 0.00 0.00 99 1014.6
20260509133659 73 166 0.9 0.9 0.00 0.00 0.00 99 1014.4
20260509133156 73 173 0.9 0.9 0.00 0.00 0.00 99 1014.7
20260509132654 73 156 0.0 0.9 0.00 0.00 0.00 99 1014.9
20260509132153 73 171 0.0 0.0 0.00 0.00 0.00 99 1014.9
20260509131648 73 224 0.9 0.9 0.00 0.00 0.00 99 1014.8
20260509131145 73 224 0.0 0.0 0.00 0.00 0.00 99 1015.0
20260509130641 73 225 0.0 0.0 0.00 0.00 0.00 99 1014.8
20260509130138 73 225 0.0 0.0 0.00 0.00 0.00 99 1015.1
20260509125635 72 225 0.0 0.0 0.00 0.00 0.00 99 1015.0
20260509125131 72 213 0.0 0.9 0.00 0.00 0.00 99 1015.2
20260509124628 72 211 0.9 0.9 0.00 0.00 0.00 99 1015.1
20260509124125 72 170 0.0 0.0 0.00 0.00 0.00 99 1014.9
20260509123623 72 159 0.0 0.0 0.00 0.00 0.00 99 1014.9
20260509123119 72 160 0.0 0.0 0.00 0.00 0.00 99 1015.0
20260509122615 72 160 0.0 0.0 0.00 0.00 0.00 99 1014.8
20260509122113 72 160 0.0 0.0 0.00 0.00 0.00 99 1014.9
20260509121609 72 160 0.0 0.0 0.00 0.00 0.00 99 1014.9
20260509121107 72 159 0.0 0.0 0.00 0.00 0.00 99 1014.7
20260509120605 72 160 0.0 0.9 0.00 0.00 0.00 99 1015.0
20260509115559 72 158 0.0 0.0 0.00 0.00 0.00 99 1014.7
20260509115057 72 140 0.9 0.9 0.00 0.00 0.00 99 1014.4
20260509114555 72 162 0.0 0.0 0.00 0.00 0.00 99 1014.1
20260509114054 72 155 0.0 0.9 0.00 0.00 0.00 99 1014.2
20260509113552 72 176 1.7 1.7 0.00 0.00 0.00 99 1014.1
20260509113049 72 134 0.0 0.0 0.00 0.00 0.00 99 1014.0
20260509112545 72 160 0.0 0.9 0.00 0.00 0.00 99 1013.9
20260509112042 72 187 0.0 0.9 0.00 0.00 0.00 99 1013.9
20260509111540 72 175 0.9 0.9 0.00 0.00 0.00 99 1014.0
20260509111037 72 187 0.9 0.9 0.00 0.00 0.00 99 1013.3
20260509110533 72 147 0.0 0.9 0.00 0.00 0.00 99 1013.4
20260509110030 72 147 0.0 0.0 0.00 0.00 0.00 99 1013.6
20260509105529 72 147 0.9 0.9 0.00 0.00 0.00 99 1013.7
20260509105026 72 147 0.0 0.0 0.00 0.00 0.00 99 1013.7
20260509104523 72 147 0.0 0.0 0.00 0.00 0.00 99 1013.9
20260509104020 72 147 0.9 0.9 0.00 0.00 0.00 99 1014.1
20260509103518 72 147 0.0 0.0 0.00 0.00 0.00 99 1013.9
20260509103016 72 147 0.0 0.0 0.00 0.00 0.00 99 1013.8
20260509102513 72 147 0.0 0.0 0.00 0.00 0.00 99 1013.9
20260509102009 72 146 0.9 0.9 0.00 0.00 0.00 99 1014.1
20260509101506 72 147 0.0 0.0 0.00 0.00 0.00 99 1014.1
20260509101003 72 147 0.0 0.0 0.00 0.00 0.00 99 1014.5
20260509100500 72 146 0.0 0.0 0.00 0.00 0.00 99 1014.4
20260509095956 72 147 0.0 0.0 0.00 0.00 0.00 99 1014.1
20260509095453 72 146 0.0 0.0 0.00 0.00 0.00 99 1013.8
20260509094951 72 147 0.0 0.0 0.00 0.00 0.00 99 1014.0
20260509094447 72 147 0.0 0.0 0.00 0.00 0.00 99 1014.1
20260509093944 72 147 0.0 0.0 0.00 0.00 0.00 99 1014.0
20260509093442 72 147 0.0 0.0 0.00 0.00 0.00 99 1013.9
20260509092940 72 147 0.0 0.0 0.00 0.00 0.00 99 1013.9
20260509092437 72 147 0.0 0.0 0.00 0.00 0.00 99 1013.9
20260509091936 72 147 0.0 0.0 0.00 0.00 0.00 99 1014.0
20260509091432 72 147 0.0 0.0 0.00 0.00 0.00 99 1014.1
20260509090930 72 147 0.0 0.0 0.00 0.00 0.00 99 1013.9
20260509090427 72 147 0.0 0.0 0.00 0.00 0.00 99 1014.1
20260509085924 72 147 0.0 0.0 0.00 0.00 0.00 99 1014.1
20260509085421 72 147 0.0 0.0 0.00 0.00 0.00 99 1014.3
20260509084917 72 147 0.0 0.0 0.00 0.00 0.00 99 1013.9
20260509084414 72 147 0.0 0.0 0.00 0.00 0.00 99 1013.8
20260509083912 72 147 0.0 0.0 0.00 0.00 0.00 99 1014.0
20260509083409 72 147 0.0 0.0 0.00 0.00 0.00 99 1014.3
20260509082905 72 147 0.0 0.0 0.00 0.00 0.00 99 1014.2
20260509082403 72 147 0.0 0.0 0.00 0.00 0.00 99 1014.2
20260509081859 72 147 0.0 0.0 0.00 0.00 0.00 99 1014.4
20260509081356 72 147 0.0 0.0 0.00 0.00 0.00 99 1014.3
20260509080854 72 147 0.0 0.0 0.00 0.00 0.00 99 1014.4
20260509080352 72 147 0.0 0.0 0.00 0.00 0.00 99 1014.3
20260509075850 72 151 0.0 0.9 0.00 0.00 0.00 99 1014.1
20260509075347 72 133 1.7 1.7 0.00 0.00 0.00 99 1014.1
20260509074844 71 167 0.0 0.0 0.00 0.00 0.00 99 1014.1
20260509074342 71 144 0.9 0.9 0.00 0.00 0.00 99 1014.0
20260509073838 71 158 0.9 1.7 0.00 0.00 0.00 99 1013.9
20260509073334 71 169 0.9 1.7 0.00 0.00 0.00 99 1013.9
20260509072831 71 132 1.7 1.7 0.00 0.00 0.00 99 1014.1
20260509072327 71 178 0.9 0.9 0.00 0.00 0.00 99 1014.3
20260509071824 71 141 0.9 0.9 0.00 0.00 0.00 99 1014.3
20260509071321 71 183 0.0 0.9 0.00 0.00 0.00 99 1014.2
20260509070818 71 184 0.0 0.0 0.00 0.00 0.00 99 1014.7
20260509070315 71 184 0.0 0.0 0.00 0.00 0.00 99 1014.6
20260509065811 71 184 0.9 0.9 0.00 0.00 0.00 99 1014.5
20260509065307 71 177 0.9 0.9 0.00 0.00 0.00 99 1014.3
20260509064803 71 143 0.0 0.9 0.00 0.00 0.00 99 1014.1
20260509064301 71 168 1.7 1.7 0.00 0.00 0.00 99 1014.1
20260509063759 71 131 0.9 0.9 0.00 0.00 0.00 99 1013.9
20260509063255 71 166 0.0 0.9 0.00 0.00 0.00 99 1014.2
20260509062752 71 179 0.9 0.9 0.00 0.00 0.00 99 1014.3
20260509062249 71 160 0.0 0.0 0.00 0.00 0.00 99 1014.4
20260509061746 71 181 0.9 1.7 0.00 0.00 0.00 99 1014.4
20260509061244 71 187 0.0 0.0 0.00 0.00 0.00 99 1014.3
20260509060741 71 164 0.0 0.0 0.00 0.00 0.00 99 1014.4
20260509060237 71 145 0.9 0.9 0.00 0.00 0.00 99 1014.5
20260509055733 71 167 0.9 0.9 0.00 0.03 0.03 99 1014.6
20260509055229 71 184 0.9 0.9 0.00 0.03 0.03 99 1014.6
20260509054726 71 180 0.9 0.9 0.00 0.03 0.03 99 1014.5
20260509054223 71 172 2.6 2.6 0.00 0.03 0.03 99 1014.8
20260509053722 71 144 1.7 1.7 0.00 0.03 0.03 99 1014.9
20260509053218 71 195 0.0 0.9 0.00 0.03 0.03 99 1014.7
20260509052716 71 147 1.7 1.7 0.00 0.03 0.03 99 1014.6
20260509052213 71 135 1.7 1.7 0.00 0.03 0.03 99 1014.4
20260509051711 71 208 1.7 1.7 0.00 0.03 0.03 99 1014.6
20260509051208 71 174 0.9 1.7 0.00 0.03 0.03 99 1014.9
20260509050705 71 181 0.0 0.9 0.00 0.03 0.03 99 1014.9
20260509050202 71 142 1.7 1.7 0.00 0.03 0.03 99 1014.9
20260509045659 71 170 0.9 0.9 0.00 0.03 0.03 99 1014.8
20260509045156 71 159 0.0 0.9 0.00 0.03 0.03 99 1014.7
20260509044653 71 158 0.9 1.7 0.00 0.03 0.03 99 1014.8
20260509044150 71 146 0.0 0.0 0.00 0.03 0.03 99 1014.4
20260509043647 71 166 0.9 0.9 0.00 0.03 0.03 99 1014.4
20260509043142 71 166 0.0 0.0 0.00 0.03 0.03 99 1014.6
20260509042639 71 144 0.9 0.9 0.00 0.03 0.03 99 1014.5
20260509042135 71 167 0.9 0.9 0.00 0.03 0.03 99 1014.6
20260509041632 71 133 0.9 0.9 0.00 0.03 0.03 99 1014.6
20260509041129 71 176 0.9 0.9 0.00 0.03 0.03 99 1014.9
20260509040628 71 165 2.6 2.6 0.00 0.03 0.03 99 1014.5
20260509040125 71 155 0.0 0.9 0.00 0.03 0.03 99 1014.4
20260509035621 71 175 0.9 1.7 0.00 0.03 0.03 99 1014.5
20260509035118 71 168 0.9 0.9 0.00 0.03 0.03 99 1014.3
20260509034616 71 171 2.6 4.3 0.00 0.03 0.03 99 1014.4
20260509034113 71 148 2.6 4.3 0.00 0.03 0.03 99 1014.4
20260509033610 71 169 2.6 2.6 0.00 0.03 0.03 99 1014.4
20260509033106 71 155 0.9 1.7 0.00 0.03 0.03 99 1014.2
20260509032604 71 148 0.9 0.9 0.00 0.03 0.03 99 1014.3
20260509032100 71 156 1.7 2.6 0.00 0.03 0.03 99 1014.3
20260509031559 71 163 0.9 1.7 0.00 0.03 0.03 99 1014.2
20260509031055 71 90 1.7 1.7 0.00 0.03 0.03 98 1014.1
20260509030554 71 163 0.9 1.7 0.00 0.03 0.03 98 1014.3
20260509030050 71 207 1.7 1.7 0.00 0.03 0.03 98 1014.2
20260509025546 71 149 0.9 1.7 0.00 0.03 0.03 98 1014.0
20260509025042 71 162 1.7 1.7 0.00 0.03 0.03 98 1014.1
20260509024538 71 168 2.6 2.6 0.00 0.03 0.03 97 1013.9
20260509024034 71 174 1.7 1.7 0.00 0.03 0.03 97 1013.7
20260509023532 71 113 0.9 0.9 0.00 0.03 0.03 97 1013.8
20260509023029 71 107 2.6 4.3 0.00 0.03 0.03 97 1013.8
20260509022525 71 171 2.6 2.6 0.00 0.03 0.03 97 1013.9
20260509022023 71 163 2.6 2.6 0.00 0.03 0.03 97 1013.8
20260509021520 71 160 2.6 2.6 0.00 0.03 0.03 97 1013.8
20260509021017 71 161 1.7 2.6 0.00 0.03 0.03 97 1013.7
20260509020515 71 135 0.9 2.6 0.00 0.03 0.03 97 1013.8
20260509020012 71 130 0.9 0.9 0.00 0.03 0.03 96 1013.7
20260509015511 71 156 0.0 0.0 0.00 0.03 0.03 96 1013.5
20260509015008 71 158 0.0 0.0 0.00 0.03 0.03 96 1013.6
20260509014504 72 172 0.9 1.7 0.00 0.03 0.03 95 1013.5
20260509014000 72 159 0.0 0.9 0.00 0.03 0.03 95 1013.5
20260509013458 72 158 0.0 0.9 0.00 0.03 0.03 95 1013.6
20260509012953 72 148 0.9 0.9 0.00 0.03 0.03 95 1013.6
20260509012450 72 160 0.9 0.9 0.00 0.03 0.03 94 1013.6
20260509011947 73 142 0.0 0.0 0.00 0.03 0.03 94 1013.6
20260509011444 73 128 0.9 0.9 0.00 0.03 0.03 93 1013.7
20260509010942 73 142 0.0 0.0 0.00 0.03 0.03 93 1013.6
20260509010439 73 161 0.9 0.9 0.00 0.03 0.03 93 1013.6
20260509005936 73 108 0.9 0.9 0.00 0.03 0.03 92 1013.6
20260509005434 74 142 0.9 0.9 0.00 0.03 0.03 92 1013.8
20260509004934 74 166 1.7 2.6 0.00 0.03 0.03 92 1013.9
20260509004431 74 47 1.7 1.7 0.00 0.03 0.03 92 1013.8
20260509003929 74 158 1.7 1.7 0.00 0.03 0.03 91 1013.6
20260509003427 74 174 0.0 0.9 0.00 0.03 0.03 91 1013.6
20260509002923 74 121 0.9 1.7 0.00 0.03 0.03 91 1013.4
20260509002421 74 196 2.6 4.3 0.00 0.03 0.03 91 1013.3
20260509001913 74 134 0.0 0.9 0.00 0.03 0.03 92 1013.4
20260509001409 75 135 2.6 2.6 0.00 0.03 0.03 91 1013.2
20260509000906 75 138 0.9 0.9 0.00 0.03 0.03 91 1013.6
20260509000404 75 88 2.6 2.6 0.00 0.03 0.03 91 1013.6
20260508235900 75 99 1.7 2.6 0.00 0.03 0.03 90 1013.8
20260508235357 75 103 0.9 0.9 0.00 0.03 0.03 90 1013.9
20260508234854 75 97 1.7 1.7 0.00 0.03 0.03 91 1014.1
20260508234350 75 165 0.9 0.9 0.00 0.03 0.03 91 1014.0
20260508233849 75 115 0.9 1.7 0.00 0.03 0.03 92 1013.8
20260508233348 75 133 0.0 0.0 0.00 0.03 0.03 91 1013.9
20260508232845 75 110 0.9 0.9 0.00 0.03 0.03 91 1013.9
20260508232341 75 148 0.0 0.9 0.00 0.03 0.03 91 1014.0
20260508231839 75 143 0.0 0.0 0.00 0.03 0.03 91 1013.8
20260508231335 75 137 0.9 0.9 0.00 0.03 0.03 91 1013.9
20260508230832 75 179 0.9 0.9 0.00 0.03 0.03 91 1013.8
20260508230328 75 161 0.9 1.7 0.00 0.03 0.03 91 1013.8
20260508225827 75 92 2.6 2.6 0.00 0.03 0.03 91 1013.7
20260508225323 75 132 0.9 0.9 0.00 0.03 0.03 91 1013.7
20260508224821 75 158 0.9 0.9 0.00 0.03 0.03 90 1013.6
20260508224318 76 110 2.6 2.6 0.00 0.03 0.03 89 1013.6
20260508223816 76 171 0.9 0.9 0.00 0.03 0.03 90 1013.8
20260508223313 76 118 0.9 1.7 0.00 0.03 0.03 90 1013.8
20260508222810 76 138 0.9 1.7 0.00 0.03 0.03 91 1013.5
20260508222307 76 79 3.5 4.3 0.00 0.03 0.03 89 1013.8
20260508221804 76 159 1.7 2.6 0.00 0.03 0.03 90 1013.7
20260508221259 76 95 0.9 1.7 0.00 0.03 0.03 91 1013.9
20260508220755 76 101 0.9 1.7 0.00 0.03 0.03 91 1013.8
20260508220252 76 91 0.9 1.7 0.00 0.03 0.03 90 1013.9
20260508215749 76 96 2.6 2.6 0.00 0.03 0.03 90 1013.8
20260508215246 76 94 1.7 2.6 0.00 0.03 0.03 90 1013.8
20260508214743 76 126 2.6 2.6 0.00 0.03 0.03 89 1013.9
20260508214240 77 128 1.7 1.7 0.00 0.03 0.03 87 1013.8
20260508213736 77 169 1.7 2.6 0.00 0.03 0.03 88 1013.8
20260508213233 77 152 0.9 0.9 0.00 0.03 0.03 85 1014.0
20260508212729 78 109 5.2 6.1 0.00 0.03 0.03 85 1013.7